Location: Hamburg
(53.5500°N, 10.0000°E)
Time: 06:00:07
(UTC+01:00)

A-11 Canister half - All Passes

Search period start: 29 November 2014 00:00
Search period end: 09 December 2014 00:00
Orbit: 1525 x 1685 km, 47.3° (Epoch: 27 November)

Date Brightness Start Highest point End Pass type
(mag) Time Alt. Az. Time Alt. Az. Time Alt. Az.
29 Nov - 00:12:37 10° SSW 00:20:59 31° SE 00:29:16 10° E visible
29 Nov - 02:14:59 10° WSW 02:24:43 55° SSE 02:34:13 10° E visible
29 Nov - 04:19:17 10° W 04:29:05 60° S 04:38:35 10° ESE visible
29 Nov - 06:24:09 10° W 06:33:05 40° SSW 06:41:44 10° SSE visible
29 Nov - 08:30:55 10° W 08:35:51 15° SW 08:40:43 10° SSW daylight
29 Nov - 23:51:15 10° SSW 23:59:31 30° SE 00:07:41 10° E visible
30 Nov - 01:53:28 10° SW 02:03:11 54° SSE 02:12:42 10° E visible
30 Nov - 03:57:44 10° W 04:07:33 61° S 04:17:05 10° ESE visible
30 Nov - 06:02:34 10° W 06:11:35 41° SSW 06:20:20 10° SE visible
30 Nov - 08:09:07 10° W 08:14:26 16° SW 08:19:41 10° SSW daylight
30 Nov - 23:29:53 10° SSW 23:38:02 29° SE 23:46:05 10° E night (unlit)
01 Dec - 01:31:57 10° SW 01:41:39 53° SSE 01:51:10 10° E visible
01 Dec - 03:36:10 10° W 03:46:01 61° S 03:55:35 10° ESE visible
01 Dec - 05:40:59 10° W 05:50:06 42° SSW 05:58:55 10° SE visible
01 Dec - 07:47:20 10° W 07:53:00 17° SW 07:58:36 10° SSW daylight
01 Dec - 23:08:33 10° S 23:16:33 28° SE 23:24:29 10° E night (unlit)
02 Dec - 01:10:27 10° SW 01:20:08 53° SSE 01:29:38 10° E visible
02 Dec - 03:14:37 10° W 03:24:29 61° S 03:34:05 10° ESE visible
02 Dec - 05:19:25 10° W 05:28:36 43° SSW 05:37:31 10° SE visible
02 Dec - 07:25:35 10° W 07:31:35 18° SW 07:37:28 10° SSW visible
02 Dec - 22:47:13 10° S 22:55:05 27° SE 23:02:53 10° E night (unlit)
03 Dec - 00:48:57 10° SW 00:58:36 52° SSE 01:08:06 10° E visible
03 Dec - 02:53:03 10° W 03:02:57 62° S 03:12:35 10° ESE visible
03 Dec - 04:57:50 10° W 05:07:06 45° SSW 05:16:05 10° SE visible
03 Dec - 07:03:51 10° W 07:10:09 19° SW 07:16:19 10° S visible
03 Dec - 22:25:54 10° S 22:33:36 26° SE 22:41:16 10° E night (unlit)
04 Dec - 00:27:27 10° SW 00:37:05 51° SSE 00:46:34 10° E visible
04 Dec - 02:31:30 10° W 02:41:25 62° S 02:51:05 10° ESE visible
04 Dec - 04:36:16 10° W 04:45:36 46° SSW 04:54:40 10° SE visible
04 Dec - 06:42:09 10° W 06:48:42 20° SW 06:55:09 10° S visible
04 Dec - 22:04:36 10° S 22:12:08 25° SE 22:19:38 10° E night (unlit)
05 Dec - 00:05:57 10° SW 00:15:33 50° SSE 00:25:02 10° E visible
05 Dec - 02:09:57 10° WSW 02:19:52 62° S 02:29:34 10° ESE visible
05 Dec - 04:14:41 10° W 04:24:06 47° SSW 04:33:14 10° SE visible
05 Dec - 06:20:27 10° W 06:27:16 21° SW 06:33:57 10° S visible
05 Dec - 21:43:19 10° S 21:50:40 24° SE 21:58:00 10° E night (unlit)
05 Dec - 23:44:28 10° SW 23:54:02 49° SSE 00:03:29 10° E night (unlit)
06 Dec - 01:48:24 10° WSW 01:58:20 62° S 02:08:03 10° ESE visible
06 Dec - 03:53:07 10° W 04:02:35 48° SSW 04:11:47 10° SE visible
06 Dec - 05:58:46 10° W 06:05:49 23° SW 06:12:44 10° S visible
06 Dec - 21:22:03 10° S 21:29:12 22° SE 21:36:21 10° E night (unlit)
06 Dec - 23:23:00 10° SW 23:32:31 48° SSE 23:41:57 10° E night (unlit)
07 Dec - 01:26:51 10° WSW 01:36:47 62° S 01:46:32 10° ESE visible
07 Dec - 03:31:33 10° W 03:41:04 49° SSW 03:50:21 10° SE visible
07 Dec - 05:37:06 10° W 05:44:22 24° SW 05:51:29 10° S visible
07 Dec - 21:00:48 10° S 21:07:45 21° SE 21:14:41 10° E visible
07 Dec - 23:01:31 10° SW 23:10:59 47° SSE 23:20:24 10° E night (unlit)
08 Dec - 01:05:18 10° WSW 01:15:15 62° S 01:25:01 10° ESE visible
08 Dec - 03:09:59 10° W 03:19:33 50° SSW 03:28:53 10° SE visible
08 Dec - 05:15:27 10° W 05:22:55 25° SW 05:30:14 10° S visible
08 Dec - 20:39:34 10° S 20:46:17 20° SE 20:53:01 10° E visible
08 Dec - 22:40:03 10° SW 22:49:28 46° SSE 22:58:51 10° E night (unlit)
